| time (UTC) | temp F | wind direction | speed MPH | gust MPH | rain 1hr in | rain 24hr in | rain mn in | humidity % | barometer mb |
| 20260903065528 | 66 | 261 | 2.0 | 10.0 | 0.00 | 0.00 | 0.00 | 76 | 1015.0 |
| 20260903065028 | 66 | 301 | 2.0 | 10.0 | 0.00 | 0.00 | 0.00 | 76 | 1014.9 |
| 20260903064802 | 66 | 171 | 2.0 | 7.0 | 0.00 | 0.00 | 0.00 | 76 | 1015.0 |
| 20260903064028 | 66 | 278 | 2.0 | 7.0 | 0.00 | 0.00 | 0.00 | 76 | 1014.9 |
| 20260903063547 | 66 | 238 | 2.0 | 6.0 | 0.00 | 0.00 | 0.00 | 75 | 1014.7 |
| 20260903063540 | 66 | 264 | 2.0 | 5.0 | 0.00 | 0.00 | 0.00 | 76 | 1014.8 |
| 20260903062528 | 66 | 304 | 2.0 | 7.0 | 0.00 | 0.00 | 0.00 | 75 | 1014.8 |
| 20260903062027 | 66 | 299 | 2.0 | 7.0 | 0.00 | 0.00 | 0.00 | 75 | 1014.9 |
| 20260903061527 | 66 | 125 | 2.0 | 8.0 | 0.00 | 0.00 | 0.00 | 75 | 1014.7 |
| 20260903061027 | 65 | 148 | 2.0 | 8.0 | 0.00 | 0.00 | 0.00 | 74 | 1014.9 |
| 20260903060529 | 65 | 243 | 2.0 | 7.0 | 0.00 | 0.00 | 0.00 | 74 | 1014.9 |
| 20260903060315 | 65 | 297 | 2.0 | 7.0 | 0.00 | 0.00 | 0.00 | 73 | 1015.0 |
| 20260903055526 | 65 | 287 | 2.0 | 6.0 | 0.00 | 0.00 | 0.00 | 73 | 1015.1 |
| 20260903055026 | 65 | 292 | 2.0 | 7.0 | 0.00 | 0.00 | 0.00 | 73 | 1015.0 |
| 20260903054528 | 65 | 273 | 2.0 | 7.0 | 0.00 | 0.00 | 0.00 | 72 | 1014.8 |
| 20260903054253 | 65 | 183 | 2.0 | 6.0 | 0.00 | 0.00 | 0.00 | 72 | 1014.8 |
| 20260903053754 | 65 | 325 | 2.0 | 8.0 | 0.00 | 0.00 | 0.00 | 73 | 1015.0 |
| 20260903053256 | 65 | 150 | 1.0 | 8.0 | 0.00 | 0.00 | 0.00 | 72 | 1014.9 |
| 20260903052522 | 65 | 266 | 1.0 | 5.0 | 0.00 | 0.00 | 0.00 | 72 | 1014.8 |
| 20260903052021 | 65 | 303 | 2.0 | 6.0 | 0.00 | 0.00 | 0.00 | 72 | 1014.8 |
| 20260903051523 | 65 | 281 | 1.0 | 6.0 | 0.00 | 0.00 | 0.00 | 72 | 1014.8 |
| 20260903051023 | 65 | 9 | 2.0 | 6.0 | 0.00 | 0.00 | 0.00 | 72 | 1014.8 |
| 20260903050520 | 65 | 301 | 2.0 | 6.0 | 0.00 | 0.00 | 0.00 | 72 | 1014.8 |
| 20260903050031 | 65 | 146 | 2.0 | 9.0 | 0.00 | 0.00 | 0.00 | 72 | 1015.0 |
| 20260903045521 | 65 | 293 | 2.0 | 9.0 | 0.00 | 0.00 | 0.00 | 72 | 1015.1 |
| 20260903045019 | 65 | 321 | 1.0 | 6.0 | 0.00 | 0.00 | 0.00 | 72 | 1015.2 |
| 20260903044523 | 65 | 187 | 1.0 | 6.0 | 0.00 | 0.00 | 0.00 | 71 | 1015.2 |
| 20260903044035 | 65 | 336 | 1.0 | 6.0 | 0.00 | 0.00 | 0.00 | 71 | 1015.2 |
| 20260903044029 | 65 | 112 | 1.0 | 5.0 | 0.00 | 0.00 | 0.00 | 72 | 1015.2 |
| 20260903043025 | 65 | 339 | 2.0 | 6.0 | 0.00 | 0.00 | 0.00 | 71 | 1015.1 |
| 20260903042525 | 65 | 316 | 2.0 | 8.0 | 0.00 | 0.00 | 0.00 | 71 | 1015.0 |
| 20260903042018 | 65 | 295 | 2.0 | 8.0 | 0.00 | 0.00 | 0.00 | 72 | 1015.0 |
| 20260903041522 | 65 | 274 | 1.0 | 4.0 | 0.00 | 0.00 | 0.00 | 72 | 1014.9 |
| 20260903041019 | 65 | 218 | 1.0 | 5.0 | 0.00 | 0.00 | 0.00 | 72 | 1014.7 |
| 20260903040520 | 65 | 226 | 1.0 | 5.0 | 0.00 | 0.00 | 0.00 | 72 | 1014.8 |
| 20260903040030 | 65 | 94 | 1.0 | 4.0 | 0.00 | 0.00 | 0.00 | 72 | 1014.7 |
| 20260903035519 | 65 | 233 | 1.0 | 7.0 | 0.00 | 0.00 | 0.00 | 72 | 1015.0 |
| 20260903035020 | 65 | 266 | 1.0 | 7.0 | 0.00 | 0.00 | 0.00 | 72 | 1015.1 |
| 20260903034522 | 65 | 225 | 1.0 | 5.0 | 0.00 | 0.00 | 0.00 | 73 | 1015.1 |
| 20260903034018 | 64 | 205 | 1.0 | 4.0 | 0.00 | 0.00 | 0.00 | 73 | 1015.1 |
| 20260903033519 | 65 | 305 | 1.0 | 5.0 | 0.00 | 0.00 | 0.00 | 73 | 1015.2 |
| 20260903033025 | 65 | 297 | 1.0 | 5.0 | 0.00 | 0.00 | 0.00 | 73 | 1015.3 |
| 20260903032519 | 65 | 297 | 1.0 | 3.0 | 0.00 | 0.00 | 0.00 | 73 | 1015.3 |
| 20260903032019 | 65 | 290 | 1.0 | 3.0 | 0.00 | 0.00 | 0.00 | 73 | 1015.4 |
| 20260903031522 | 65 | 243 | 1.0 | 4.0 | 0.00 | 0.00 | 0.00 | 73 | 1015.5 |
| 20260903031019 | 64 | 283 | 1.0 | 5.0 | 0.00 | 0.00 | 0.00 | 73 | 1015.6 |
| 20260903030518 | 64 | 308 | 1.0 | 5.0 | 0.00 | 0.00 | 0.00 | 73 | 1015.6 |
| 20260903030028 | 64 | 141 | 1.0 | 5.0 | 0.00 | 0.00 | 0.00 | 74 | 1015.5 |
| 20260903025522 | 64 | 269 | 2.0 | 9.0 | 0.00 | 0.00 | 0.00 | 74 | 1015.6 |
| 20260903025250 | 64 | 264 | 2.0 | 9.0 | 0.00 | 0.00 | 0.00 | 74 | 1015.6 |
| 20260903024456 | 64 | 280 | 1.0 | 4.0 | 0.00 | 0.00 | 0.00 | 75 | 1015.4 |
| 20260903023951 | 64 | 230 | 1.0 | 6.0 | 0.00 | 0.00 | 0.00 | 75 | 1015.4 |
| 20260903023739 | 63 | 221 | 1.0 | 6.0 | 0.00 | 0.00 | 0.00 | 75 | 1015.5 |
| 20260903022948 | 63 | 264 | 1.0 | 6.0 | 0.00 | 0.00 | 0.00 | 76 | 1015.4 |
| 20260903022448 | 63 | 234 | 1.0 | 3.0 | 0.00 | 0.00 | 0.00 | 76 | 1015.4 |
| 20260903021946 | 64 | 302 | 0.0 | 3.0 | 0.00 | 0.00 | 0.00 | 76 | 1015.4 |
| 20260903021447 | 64 | 224 | 1.0 | 3.0 | 0.00 | 0.00 | 0.00 | 76 | 1015.4 |
| 20260903020944 | 64 | 191 | 1.0 | 3.0 | 0.00 | 0.00 | 0.00 | 75 | 1015.5 |
| 20260903020445 | 64 | 225 | 1.0 | 4.0 | 0.00 | 0.00 | 0.00 | 75 | 1015.7 |
| 20260903015942 | 64 | 216 | 1.0 | 4.0 | 0.00 | 0.00 | 0.00 | 75 | 1015.7 |
| 20260903015441 | 64 | 255 | 1.0 | 3.0 | 0.00 | 0.00 | 0.00 | 75 | 1015.7 |
| 20260903014938 | 64 | 182 | 1.0 | 5.0 | 0.00 | 0.00 | 0.00 | 75 | 1015.9 |
| 20260903014439 | 64 | 272 | 1.0 | 5.0 | 0.00 | 0.00 | 0.00 | 74 | 1015.9 |
| 20260903014230 | 64 | 243 | 1.0 | 4.0 | 0.00 | 0.00 | 0.00 | 75 | 1015.9 |
| 20260903013437 | 64 | 264 | 1.0 | 5.0 | 0.00 | 0.00 | 0.00 | 74 | 1016.0 |
| 20260903012937 | 64 | 150 | 1.0 | 5.0 | 0.00 | 0.00 | 0.00 | 74 | 1016.1 |
| 20260903012437 | 64 | 264 | 1.0 | 5.0 | 0.00 | 0.00 | 0.00 | 74 | 1016.0 |
| 20260903012222 | 64 | 264 | 1.0 | 5.0 | 0.00 | 0.00 | 0.00 | 75 | 1016.2 |
| 20260903011436 | 64 | 325 | 1.0 | 4.0 | 0.00 | 0.00 | 0.00 | 75 | 1016.2 |
| 20260903010953 | 64 | 283 | 1.0 | 4.0 | 0.00 | 0.00 | 0.00 | 76 | 1016.2 |
| 20260903010946 | 64 | 289 | 1.0 | 4.0 | 0.00 | 0.00 | 0.00 | 75 | 1016.2 |
| 20260903005930 | 64 | 271 | 0.0 | 3.0 | 0.00 | 0.00 | 0.00 | 76 | 1016.2 |
| 20260903005430 | 64 | 265 | 1.0 | 3.0 | 0.00 | 0.00 | 0.00 | 76 | 1016.2 |
| 20260903004930 | 64 | 342 | 1.0 | 5.0 | 0.00 | 0.00 | 0.00 | 76 | 1016.3 |
| 20260903004429 | 64 | 278 | 1.0 | 7.0 | 0.00 | 0.00 | 0.00 | 77 | 1016.4 |
| 20260903003930 | 63 | 43 | 1.0 | 7.0 | 0.00 | 0.00 | 0.00 | 78 | 1016.3 |
| 20260903003431 | 63 | 224 | 1.0 | 4.0 | 0.00 | 0.00 | 0.00 | 79 | 1016.3 |
| 20260903002930 | 63 | 293 | 0.0 | 2.0 | 0.00 | 0.00 | 0.00 | 80 | 1016.3 |
| 20260903002721 | 62 | 159 | 0.0 | 2.0 | 0.00 | 0.00 | 0.00 | 80 | 1016.4 |
| 20260903001931 | 62 | 272 | 0.0 | 3.0 | 0.00 | 0.00 | 0.00 | 82 | 1016.5 |
| 20260903001430 | 62 | 290 | 0.0 | 3.0 | 0.00 | 0.00 | 0.00 | 83 | 1016.6 |
| 20260903000930 | 61 | 195 | 0.0 | 3.0 | 0.00 | 0.00 | 0.00 | 83 | 1016.6 |
| 20260903000432 | 62 | 165 | 0.0 | 1.0 | 0.00 | 0.00 | 0.00 | 84 | 1016.6 |
| 20260902235932 | 62 | 165 | 0.0 | 1.0 | 0.00 | 0.00 | 0.00 | 85 | 1016.6 |
| 20260902235430 | 62 | 198 | 0.0 | 1.0 | 0.00 | 0.00 | 0.00 | 84 | 1016.6 |
| 20260902234930 | 62 | 198 | 0.0 | 1.0 | 0.00 | 0.00 | 0.00 | 84 | 1016.6 |
| 20260902234720 | 62 | 230 | 0.0 | 2.0 | 0.00 | 0.00 | 0.00 | 84 | 1016.7 |
| 20260902233936 | 61 | 230 | 0.0 | 2.0 | 0.00 | 0.00 | 0.00 | 84 | 1016.7 |
| 20260902233435 | 61 | 226 | 0.0 | 0.0 | 0.00 | 0.00 | 0.00 | 86 | 1016.8 |
| 20260902232927 | 61 | 226 | 0.0 | 0.0 | 0.00 | 0.00 | 0.00 | 86 | 1016.9 |
| 20260902232421 | 61 | 226 | 0.0 | 0.0 | 0.00 | 0.00 | 0.00 | 87 | 1017.0 |
| 20260902232201 | 60 | 226 | 0.0 | 0.0 | 0.00 | 0.00 | 0.00 | 87 | 1017.0 |
| 20260902231410 | 60 | 226 | 0.0 | 0.0 | 0.00 | 0.00 | 0.00 | 88 | 1017.0 |
| 20260902230910 | 60 | 226 | 0.0 | 0.0 | 0.00 | 0.00 | 0.00 | 88 | 1017.1 |
| 20260902230411 | 60 | 226 | 0.0 | 0.0 | 0.00 | 0.00 | 0.00 | 89 | 1017.0 |
| 20260902225911 | 60 | 226 | 0.0 | 0.0 | 0.00 | 0.00 | 0.00 | 88 | 1017.0 |
| 20260902225654 | 60 | 226 | 0.0 | 0.0 | 0.00 | 0.00 | 0.00 | 89 | 1017.1 |
| 20260902225209 | 60 | 226 | 0.0 | 0.0 | 0.00 | 0.00 | 0.00 | 88 | 1017.2 |
| 20260902224655 | 60 | 226 | 0.0 | 0.0 | 0.00 | 0.00 | 0.00 | 88 | 1017.2 |
| 20260902223908 | 60 | 226 | 0.0 | 0.0 | 0.00 | 0.00 | 0.00 | 89 | 1017.1 |
| 20260902223406 | 60 | 226 | 0.0 | 0.0 | 0.00 | 0.00 | 0.00 | 90 | 1017.1 |
| 20260902222903 | 60 | 226 | 0.0 | 0.0 | 0.00 | 0.00 | 0.00 | 90 | 1017.1 |
| 20260902222402 | 60 | 226 | 0.0 | 0.0 | 0.00 | 0.00 | 0.00 | 91 | 1017.0 |
| 20260902221903 | 60 | 226 | 0.0 | 0.0 | 0.00 | 0.00 | 0.00 | 91 | 1017.0 |
| 20260902221401 | 60 | 226 | 0.0 | 0.0 | 0.00 | 0.00 | 0.00 | 92 | 1017.2 |
| 20260902221145 | 60 | 226 | 0.0 | 0.0 | 0.00 | 0.00 | 0.00 | 92 | 1017.2 |
| 20260902220403 | 60 | 226 | 0.0 | 0.0 | 0.00 | 0.00 | 0.00 | 92 | 1017.2 |
| 20260902215902 | 59 | 226 | 0.0 | 0.0 | 0.00 | 0.00 | 0.00 | 92 | 1017.3 |
| 20260902215401 | 59 | 226 | 0.0 | 0.0 | 0.00 | 0.00 | 0.00 | 92 | 1017.4 |
| 20260902214855 | 59 | 226 | 0.0 | 0.0 | 0.00 | 0.00 | 0.00 | 92 | 1017.5 |
| 20260902214415 | 59 | 226 | 0.0 | 0.0 | 0.00 | 0.00 | 0.00 | 92 | 1017.4 |
| 20260902214406 | 59 | 226 | 0.0 | 0.0 | 0.00 | 0.00 | 0.00 | 92 | 1017.4 |
| 20260902213353 | 59 | 226 | 0.0 | 0.0 | 0.00 | 0.00 | 0.00 | 92 | 1017.4 |
| 20260902212853 | 59 | 226 | 0.0 | 0.0 | 0.00 | 0.00 | 0.00 | 91 | 1017.4 |
| 20260902212351 | 59 | 226 | 0.0 | 0.0 | 0.00 | 0.00 | 0.00 | 91 | 1017.5 |
| 20260902211851 | 59 | 226 | 0.0 | 0.0 | 0.00 | 0.00 | 0.00 | 91 | 1017.4 |
| 20260902211351 | 59 | 226 | 0.0 | 0.0 | 0.00 | 0.00 | 0.00 | 90 | 1017.5 |
| 20260902211131 | 60 | 226 | 0.0 | 0.0 | 0.00 | 0.00 | 0.00 | 90 | 1017.4 |
| 20260902210349 | 60 | 226 | 0.0 | 0.0 | 0.00 | 0.00 | 0.00 | 90 | 1017.5 |
| 20260902205848 | 60 | 226 | 0.0 | 0.0 | 0.00 | 0.00 | 0.00 | 90 | 1017.5 |
| 20260902205345 | 60 | 226 | 0.0 | 0.0 | 0.00 | 0.00 | 0.00 | 90 | 1017.5 |
| 20260902204845 | 60 | 226 | 0.0 | 0.0 | 0.00 | 0.00 | 0.00 | 90 | 1017.4 |
| 20260902204344 | 60 | 226 | 0.0 | 0.0 | 0.00 | 0.00 | 0.00 | 90 | 1017.5 |
| 20260902204124 | 61 | 226 | 0.0 | 0.0 | 0.00 | 0.00 | 0.00 | 90 | 1017.4 |
| 20260902203628 | 61 | 226 | 0.0 | 0.0 | 0.00 | 0.00 | 0.00 | 89 | 1017.4 |
| 20260902202841 | 61 | 226 | 0.0 | 0.0 | 0.00 | 0.00 | 0.00 | 88 | 1017.4 |
| 20260902202339 | 61 | 226 | 0.0 | 0.0 | 0.00 | 0.00 | 0.00 | 88 | 1017.4 |
| 20260902202122 | 61 | 226 | 0.0 | 0.0 | 0.00 | 0.00 | 0.00 | 87 | 1017.5 |
| 20260902201337 | 61 | 226 | 0.0 | 0.0 | 0.00 | 0.00 | 0.00 | 86 | 1017.5 |
| 20260902200838 | 62 | 226 | 0.0 | 0.0 | 0.00 | 0.00 | 0.00 | 86 | 1017.6 |
| 20260902200337 | 62 | 226 | 0.0 | 0.0 | 0.00 | 0.00 | 0.00 | 85 | 1017.6 |
| 20260902195835 | 62 | 226 | 0.0 | 0.0 | 0.00 | 0.00 | 0.00 | 85 | 1017.6 |
| 20260902195335 | 62 | 226 | 0.0 | 0.0 | 0.00 | 0.00 | 0.00 | 84 | 1017.5 |
| 20260902195119 | 63 | 226 | 0.0 | 0.0 | 0.00 | 0.00 | 0.00 | 83 | 1017.6 |
| 20260902194336 | 63 | 226 | 0.0 | 0.0 | 0.00 | 0.00 | 0.00 | 82 | 1017.6 |
| 20260902193835 | 64 | 226 | 0.0 | 0.0 | 0.00 | 0.00 | 0.00 | 82 | 1017.5 |
| 20260902193335 | 64 | 226 | 0.0 | 0.0 | 0.00 | 0.00 | 0.00 | 81 | 1017.6 |
| 20260902192836 | 64 | 226 | 0.0 | 0.0 | 0.00 | 0.00 | 0.00 | 81 | 1017.5 |
| 20260902192331 | 64 | 226 | 0.0 | 0.0 | 0.00 | 0.00 | 0.00 | 81 | 1017.5 |
| 20260902191830 | 65 | 226 | 0.0 | 0.0 | 0.00 | 0.00 | 0.00 | 80 | 1017.6 |
| 20260902191331 | 65 | 226 | 0.0 | 0.0 | 0.00 | 0.00 | 0.00 | 80 | 1017.6 |
| 20260902190830 | 65 | 226 | 0.0 | 0.0 | 0.00 | 0.00 | 0.00 | 79 | 1017.6 |
| 20260902190615 | 66 | 226 | 0.0 | 0.0 | 0.00 | 0.00 | 0.00 | 78 | 1017.6 |
| 20260902190140 | 66 | 226 | 0.0 | 0.0 | 0.00 | 0.00 | 0.00 | 77 | 1017.6 |
| 20260902185331 | 66 | 226 | 0.0 | 0.0 | 0.00 | 0.00 | 0.00 | 77 | 1017.5 |
| 20260902184831 | 67 | 226 | 0.0 | 0.0 | 0.00 | 0.00 | 0.00 | 76 | 1017.5 |
| 20260902184613 | 67 | 226 | 0.0 | 0.0 | 0.00 | 0.00 | 0.00 | 74 | 1017.5 |
| 20260902183831 | 67 | 226 | 0.0 | 1.0 | 0.00 | 0.00 | 0.00 | 73 | 1017.5 |
| 20260902183330 | 67 | 226 | 0.0 | 1.0 | 0.00 | 0.00 | 0.00 | 72 | 1017.5 |
| 20260902182830 | 67 | 226 | 0.0 | 1.0 | 0.00 | 0.00 | 0.00 | 72 | 1017.4 |
| 20260902182330 | 68 | 221 | 0.0 | 1.0 | 0.00 | 0.00 | 0.00 | 72 | 1017.5 |
| 20260902181830 | 68 | 198 | 0.0 | 1.0 | 0.00 | 0.00 | 0.00 | 71 | 1017.5 |
| 20260902181353 | 68 | 234 | 0.0 | 2.0 | 0.00 | 0.00 | 0.00 | 71 | 1017.4 |
| 20260902181346 | 68 | 198 | 0.0 | 2.0 | 0.00 | 0.00 | 0.00 | 70 | 1017.4 |
| 20260902180331 | 68 | 285 | 0.0 | 2.0 | 0.00 | 0.00 | 0.00 | 71 | 1017.4 |
| 20260902180145 | 68 | 174 | 0.0 | 1.0 | 0.00 | 0.00 | 0.00 | 71 | 1017.4 |
| 20260902175330 | 68 | 200 | 0.0 | 1.0 | 0.00 | 0.00 | 0.00 | 70 | 1017.3 |
| 20260902174831 | 69 | 233 | 0.0 | 3.0 | 0.00 | 0.00 | 0.00 | 71 | 1017.4 |
| 20260902174328 | 69 | 233 | 0.0 | 3.0 | 0.00 | 0.00 | 0.00 | 69 | 1017.4 |
| 20260902173829 | 69 | 288 | 0.0 | 2.0 | 0.00 | 0.00 | 0.00 | 71 | 1017.4 |
| 20260902173329 | 69 | 287 | 0.0 | 3.0 | 0.00 | 0.00 | 0.00 | 70 | 1017.4 |
| 20260902172829 | 69 | 287 | 0.0 | 3.0 | 0.00 | 0.00 | 0.00 | 68 | 1017.3 |
| 20260902172329 | 69 | 299 | 0.0 | 2.0 | 0.00 | 0.00 | 0.00 | 68 | 1017.3 |
| 20260902171824 | 70 | 347 | 0.0 | 1.0 | 0.00 | 0.00 | 0.00 | 67 | 1017.2 |
| 20260902171604 | 70 | 302 | 1.0 | 3.0 | 0.00 | 0.00 | 0.00 | 66 | 1017.2 |
| 20260902171058 | 70 | 285 | 1.0 | 3.0 | 0.00 | 0.00 | 0.00 | 65 | 1017.2 |
| 20260902170319 | 70 | 250 | 1.0 | 2.0 | 0.00 | 0.00 | 0.00 | 67 | 1017.3 |
| 20260902165308 | 70 | 215 | 1.0 | 3.0 | 0.00 | 0.00 | 0.00 | 64 | 1017.2 |
| 20260902164802 | 70 | 274 | 1.0 | 3.0 | 0.00 | 0.00 | 0.00 | 64 | 1017.3 |
| 20260902164302 | 70 | 328 | 1.0 | 4.0 | 0.00 | 0.00 | 0.00 | 66 | 1017.3 |
| 20260902163803 | 70 | 242 | 1.0 | 5.0 | 0.00 | 0.00 | 0.00 | 65 | 1017.3 |
| 20260902163303 | 71 | 207 | 1.0 | 5.0 | 0.00 | 0.00 | 0.00 | 64 | 1017.3 |
| 20260902162802 | 71 | 241 | 1.0 | 4.0 | 0.00 | 0.00 | 0.00 | 66 | 1017.3 |
| 20260902162306 | 71 | 181 | 2.0 | 4.0 | 0.00 | 0.00 | 0.00 | 63 | 1017.3 |
| 20260902161803 | 71 | 295 | 1.0 | 5.0 | 0.00 | 0.00 | 0.00 | 64 | 1017.4 |
| 20260902161302 | 70 | 314 | 1.0 | 5.0 | 0.00 | 0.00 | 0.00 | 64 | 1017.4 |
| 20260902160805 | 70 | 271 | 1.0 | 3.0 | 0.00 | 0.00 | 0.00 | 65 | 1017.5 |
| 20260902160301 | 70 | 311 | 2.0 | 5.0 | 0.00 | 0.00 | 0.00 | 63 | 1017.4 |
| 20260902155803 | 70 | 179 | 1.0 | 5.0 | 0.00 | 0.00 | 0.00 | 62 | 1017.5 |
| 20260902155306 | 71 | 231 | 1.0 | 4.0 | 0.00 | 0.00 | 0.00 | 66 | 1017.5 |
| 20260902154802 | 71 | 302 | 1.0 | 4.0 | 0.00 | 0.00 | 0.00 | 64 | 1017.5 |
| 20260902154304 | 71 | 274 | 2.0 | 4.0 | 0.00 | 0.00 | 0.00 | 63 | 1017.5 |
| 20260902153802 | 71 | 193 | 2.0 | 7.0 | 0.00 | 0.00 | 0.00 | 62 | 1017.5 |
| 20260902153302 | 71 | 304 | 2.0 | 7.0 | 0.00 | 0.00 | 0.00 | 62 | 1017.6 |
| 20260902152802 | 71 | 331 | 2.0 | 7.0 | 0.00 | 0.00 | 0.00 | 63 | 1017.6 |
| 20260902152307 | 71 | 319 | 2.0 | 7.0 | 0.00 | 0.00 | 0.00 | 62 | 1017.6 |
| 20260902151802 | 72 | 295 | 2.0 | 8.0 | 0.00 | 0.00 | 0.00 | 62 | 1017.6 |
| 20260902151304 | 72 | 319 | 2.0 | 8.0 | 0.00 | 0.00 | 0.00 | 61 | 1017.5 |
| 20260902150802 | 72 | 233 | 2.0 | 7.0 | 0.00 | 0.00 | 0.00 | 62 | 1017.6 |
| 20260902150302 | 72 | 288 | 2.0 | 7.0 | 0.00 | 0.00 | 0.00 | 59 | 1017.5 |
| 20260902145804 | 73 | 315 | 1.0 | 5.0 | 0.00 | 0.00 | 0.00 | 61 | 1017.6 |
| 20260902145305 | 73 | 185 | 2.0 | 5.0 | 0.00 | 0.00 | 0.00 | 59 | 1017.7 |
| 20260902145051 | 73 | 255 | 2.0 | 5.0 | 0.00 | 0.00 | 0.00 | 58 | 1017.7 |
| 20260902144303 | 74 | 308 | 2.0 | 6.0 | 0.00 | 0.00 | 0.00 | 57 | 1017.6 |
| 20260902144053 | 74 | 321 | 2.0 | 6.0 | 0.00 | 0.00 | 0.00 | 56 | 1017.6 |
| 20260902143304 | 74 | 200 | 1.0 | 4.0 | 0.00 | 0.00 | 0.00 | 61 | 1017.6 |
| 20260902142804 | 74 | 309 | 2.0 | 5.0 | 0.00 | 0.00 | 0.00 | 60 | 1017.6 |
| 20260902142306 | 74 | 143 | 2.0 | 5.0 | 0.00 | 0.00 | 0.00 | 59 | 1017.7 |
| 20260902142047 | 74 | 250 | 2.0 | 5.0 | 0.00 | 0.00 | 0.00 | 59 | 1017.8 |
| 20260902141303 | 73 | 279 | 2.0 | 4.0 | 0.00 | 0.00 | 0.00 | 62 | 1017.7 |
| 20260902140802 | 73 | 93 | 2.0 | 7.0 | 0.00 | 0.00 | 0.00 | 61 | 1017.7 |
| 20260902140302 | 73 | 285 | 2.0 | 7.0 | 0.00 | 0.00 | 0.00 | 61 | 1017.7 |
| 20260902135802 | 73 | 259 | 1.0 | 6.0 | 0.00 | 0.00 | 0.00 | 61 | 1017.7 |
| 20260902135306 | 72 | 174 | 1.0 | 5.0 | 0.00 | 0.00 | 0.00 | 61 | 1017.7 |
| 20260902134802 | 72 | 334 | 2.0 | 3.0 | 0.00 | 0.00 | 0.00 | 63 | 1017.6 |
| 20260902134302 | 72 | 205 | 2.0 | 4.0 | 0.00 | 0.00 | 0.00 | 63 | 1017.7 |
| 20260902133802 | 72 | 262 | 2.0 | 6.0 | 0.00 | 0.00 | 0.00 | 64 | 1017.8 |
| 20260902133302 | 72 | 251 | 2.0 | 6.0 | 0.00 | 0.00 | 0.00 | 63 | 1017.8 |
| 20260902133050 | 72 | 219 | 1.0 | 6.0 | 0.00 | 0.00 | 0.00 | 64 | 1017.8 |
| 20260902132306 | 72 | 261 | 1.0 | 4.0 | 0.00 | 0.00 | 0.00 | 67 | 1017.9 |
| 20260902131801 | 71 | 290 | 1.0 | 4.0 | 0.00 | 0.00 | 0.00 | 62 | 1017.9 |
| 20260902131303 | 71 | 32 | 2.0 | 5.0 | 0.00 | 0.00 | 0.00 | 64 | 1017.8 |
| 20260902130802 | 71 | 311 | 2.0 | 5.0 | 0.00 | 0.00 | 0.00 | 64 | 1017.9 |
| 20260902130302 | 71 | 282 | 2.0 | 8.0 | 0.00 | 0.00 | 0.00 | 64 | 1017.9 |
| 20260902130114 | 71 | 62 | 2.0 | 8.0 | 0.00 | 0.00 | 0.00 | 64 | 1018.0 |
| 20260902125305 | 71 | 220 | 2.0 | 5.0 | 0.00 | 0.00 | 0.00 | 65 | 1018.0 |
| 20260902124802 | 71 | 314 | 2.0 | 6.0 | 0.00 | 0.00 | 0.00 | 65 | 1018.0 |
| 20260902124552 | 71 | 293 | 2.0 | 6.0 | 0.00 | 0.00 | 0.00 | 66 | 1018.0 |
| 20260902123802 | 71 | 290 | 2.0 | 7.0 | 0.00 | 0.00 | 0.00 | 68 | 1018.0 |
| 20260902123303 | 70 | 330 | 1.0 | 7.0 | 0.00 | 0.00 | 0.00 | 68 | 1018.1 |
| 20260902122802 | 70 | 133 | 2.0 | 6.0 | 0.00 | 0.00 | 0.00 | 68 | 1017.9 |
| 20260902122305 | 70 | 184 | 1.0 | 5.0 | 0.00 | 0.00 | 0.00 | 68 | 1018.0 |
| 20260902121803 | 70 | 259 | 1.0 | 5.0 | 0.00 | 0.00 | 0.00 | 69 | 1018.0 |
| 20260902121307 | 69 | 309 | 2.0 | 6.0 | 0.00 | 0.00 | 0.00 | 67 | 1018.0 |
| 20260902120808 | 70 | 205 | 2.0 | 6.0 | 0.00 | 0.00 | 0.00 | 67 | 1018.1 |
| 20260902120546 | 70 | 278 | 2.0 | 5.0 | 0.00 | 0.00 | 0.00 | 68 | 1018.2 |
| 20260902115801 | 70 | 240 | 2.0 | 5.0 | 0.00 | 0.00 | 0.00 | 69 | 1018.3 |
| 20260902115306 | 70 | 250 | 2.0 | 10.0 | 0.00 | 0.00 | 0.00 | 68 | 1018.2 |
| 20260902114803 | 70 | 190 | 3.0 | 10.0 | 0.00 | 0.00 | 0.00 | 67 | 1018.3 |
| 20260902114303 | 70 | 266 | 2.0 | 6.0 | 0.00 | 0.00 | 0.00 | 68 | 1018.2 |
| 20260902113802 | 70 | 252 | 2.0 | 6.0 | 0.00 | 0.00 | 0.00 | 69 | 1018.3 |
| 20260902113301 | 70 | 281 | 2.0 | 6.0 | 0.00 | 0.00 | 0.00 | 66 | 1018.3 |
| 20260902112804 | 70 | 314 | 2.0 | 6.0 | 0.00 | 0.00 | 0.00 | 67 | 1018.2 |
| 20260902112545 | 70 | 298 | 2.0 | 10.0 | 0.00 | 0.00 | 0.00 | 70 | 1018.2 |
| 20260902111803 | 70 | 274 | 2.0 | 10.0 | 0.00 | 0.00 | 0.00 | 68 | 1018.2 |
| 20260902111557 | 70 | 258 | 2.0 | 6.0 | 0.00 | 0.00 | 0.00 | 69 | 1018.1 |
| 20260902110802 | 69 | 284 | 2.0 | 7.0 | 0.00 | 0.00 | 0.00 | 68 | 1018.1 |
| 20260902110303 | 69 | 192 | 3.0 | 8.0 | 0.00 | 0.00 | 0.00 | 69 | 1018.2 |
| 20260902105802 | 69 | 314 | 3.0 | 8.0 | 0.00 | 0.00 | 0.00 | 68 | 1018.2 |
| 20260902105306 | 69 | 146 | 3.0 | 8.0 | 0.00 | 0.00 | 0.00 | 69 | 1018.2 |
| 20260902104802 | 69 | 288 | 2.0 | 8.0 | 0.00 | 0.00 | 0.00 | 71 | 1018.3 |
| 20260902104302 | 69 | 141 | 2.0 | 8.0 | 0.00 | 0.00 | 0.00 | 70 | 1018.3 |
| 20260902103802 | 69 | 198 | 2.0 | 8.0 | 0.00 | 0.00 | 0.00 | 72 | 1018.3 |
| 20260902103303 | 69 | 278 | 3.0 | 7.0 | 0.00 | 0.00 | 0.00 | 73 | 1018.3 |
| 20260902102802 | 68 | 331 | 3.0 | 10.0 | 0.00 | 0.00 | 0.00 | 73 | 1018.3 |
| 20260902102307 | 68 | 277 | 4.0 | 10.0 | 0.00 | 0.00 | 0.00 | 73 | 1018.3 |
| 20260902101802 | 68 | 284 | 4.0 | 8.0 | 0.00 | 0.00 | 0.00 | 74 | 1018.4 |
| 20260902101304 | 68 | 318 | 3.0 | 8.0 | 0.00 | 0.00 | 0.00 | 75 | 1018.5 |
| 20260902100801 | 67 | 255 | 2.0 | 7.0 | 0.00 | 0.00 | 0.00 | 76 | 1018.5 |
| 20260902100255 | 67 | 265 | 3.0 | 9.0 | 0.00 | 0.01 | 0.00 | 76 | 1018.5 |
| 20260902095749 | 67 | 156 | 3.0 | 9.0 | 0.00 | 0.01 | 0.00 | 77 | 1018.4 |
| 20260902095243 | 67 | 346 | 3.0 | 7.0 | 0.00 | 0.01 | 0.00 | 77 | 1018.4 |
| 20260902094744 | 67 | 279 | 3.0 | 8.0 | 0.00 | 0.01 | 0.00 | 79 | 1018.4 |
| 20260902094530 | 66 | 282 | 3.0 | 8.0 | 0.00 | 0.01 | 0.00 | 79 | 1018.4 |
| 20260902093741 | 66 | 260 | 3.0 | 8.0 | 0.00 | 0.01 | 0.00 | 79 | 1018.4 |
| 20260902093525 | 66 | 273 | 3.0 | 8.0 | 0.00 | 0.01 | 0.00 | 79 | 1018.4 |
| 20260902092740 | 66 | 130 | 2.0 | 7.0 | 0.00 | 0.01 | 0.00 | 81 | 1018.4 |
| 20260902092239 | 66 | 281 | 2.0 | 5.0 | 0.00 | 0.01 | 0.00 | 80 | 1018.4 |
| 20260902091736 | 66 | 295 | 2.0 | 7.0 | 0.00 | 0.01 | 0.00 | 81 | 1018.4 |
| 20260902091234 | 66 | 284 | 2.0 | 7.0 | 0.00 | 0.01 | 0.00 | 80 | 1018.5 |
| 20260902090731 | 66 | 169 | 3.0 | 9.0 | 0.00 | 0.01 | 0.00 | 81 | 1018.4 |
| 20260902090232 | 66 | 250 | 3.0 | 9.0 | 0.00 | 0.01 | 0.00 | 79 | 1018.5 |
| 20260902085731 | 66 | 168 | 2.0 | 7.0 | 0.00 | 0.01 | 0.00 | 80 | 1018.3 |
| 20260902085231 | 65 | 119 | 3.0 | 7.0 | 0.00 | 0.04 | 0.00 | 80 | 1018.4 |
| 20260902084730 | 66 | 134 | 2.0 | 5.0 | 0.00 | 0.04 | 0.00 | 80 | 1018.4 |
| 20260902084232 | 65 | 116 | 2.0 | 6.0 | 0.00 | 0.04 | 0.00 | 81 | 1018.4 |
| 20260902083731 | 65 | 333 | 2.0 | 6.0 | 0.00 | 0.04 | 0.00 | 81 | 1018.2 |
| 20260902083231 | 65 | 275 | 2.0 | 7.0 | 0.00 | 0.04 | 0.00 | 80 | 1018.1 |
| 20260902082953 | 65 | 311 | 2.0 | 7.0 | 0.00 | 0.04 | 0.00 | 81 | 1018.1 |
| 20260902082231 | 65 | 158 | 2.0 | 9.0 | 0.00 | 0.04 | 0.00 | 83 | 1018.1 |
| 20260902081730 | 64 | 272 | 2.0 | 9.0 | 0.00 | 0.04 | 0.00 | 82 | 1018.1 |
| 20260902081226 | 64 | 264 | 1.0 | 5.0 | 0.00 | 0.04 | 0.00 | 83 | 1018.1 |
| 20260902080719 | 64 | 281 | 2.0 | 5.0 | 0.00 | 0.04 | 0.00 | 82 | 1018.0 |
| 20260902080215 | 64 | 325 | 2.0 | 5.0 | 0.00 | 0.04 | 0.00 | 83 | 1018.0 |
| 20260902075708 | 64 | 288 | 3.0 | 6.0 | 0.00 | 0.04 | 0.00 | 82 | 1018.0 |
| 20260902075209 | 64 | 268 | 2.0 | 6.0 | 0.00 | 0.04 | 0.00 | 82 | 1018.0 |
| 20260902074707 | 64 | 257 | 2.0 | 7.0 | 0.00 | 0.04 | 0.00 | 82 | 1018.1 |
| 20260902074436 | 63 | 271 | 2.0 | 7.0 | 0.00 | 0.04 | 0.00 | 82 | 1017.9 |
| 20260902073708 | 63 | 200 | 2.0 | 5.0 | 0.00 | 0.04 | 0.00 | 83 | 1017.9 |
| 20260902073207 | 63 | 248 | 2.0 | 7.0 | 0.00 | 0.04 | 0.00 | 84 | 1017.9 |
| 20260902072708 | 62 | 299 | 2.0 | 7.0 | 0.00 | 0.04 | 0.00 | 85 | 1017.8 |
| 20260902072205 | 62 | 253 | 2.0 | 6.0 | 0.00 | 0.04 | 0.00 | 84 | 1017.8 |
| 20260902071703 | 62 | 316 | 1.0 | 6.0 | 0.00 | 0.04 | 0.00 | 85 | 1017.8 |
| 20260902071204 | 61 | 286 | 1.0 | 6.0 | 0.00 | 0.04 | 0.00 | 86 | 1017.8 |
| 20260902070705 | 61 | 257 | 2.0 | 7.0 | 0.00 | 0.04 | 0.00 | 86 | 1017.8 |
| 20260902070203 | 60 | 210 | 2.0 | 7.0 | 0.00 | 0.04 | 0.00 | 87 | 1017.9 |